Location: Daytona Beach
(29.2106°N, 81.0231°W)
Time: 14:10:42
(UTC-04:00)

PSAT 2 - Pass Details

Date: 29 September 2021
Orbit: 299 x 724 km, 28.5° (Epoch: 18 October)

Event Time Altitude Azimuth Distance (km) Brightness Sun altitude
Rises 21:10:06 0° 262° (W) 3,087 ? -26.5°
Reaches altitude 10° 21:13:54 10° 235° (SW) 2,206 ? -27.3°
Maximum altitude 21:16:09 13° 209° (SSW) 2,033 ? -27.8°
Enters shadow 21:17:19 12° 196° (SSW) 2,084 ? -28.1°
